GFSNGP_con_3kmhel_105.txt.gz
Helicity
9 0 -20 63 174 226 42 35 -67 -21 -76 39 -19 -50 -77 88 305 27 27 26 32 24 99 353 283 230 178 144 162 183 140 145 106 100 94 98 95 84 60 68 68 61 97 70
23 32 27 -36 39 133 137 81 -2 64 52 135 -5 -10 3 -15 -9 -30 54 37 69 5 -1 43 326 273 233 174 168 223 189 170 131 107 100 123 100 97 115 109 99 179 273 283
24 15 111 -57 -78 -16 81 91 44 -3 17 73 42 64 9 -20 2 41 30 0 91 3 58 64 30 329 261 237 161 199 211 180 159 131 100 90 93 86 90 246 319 364 381 377
-29 7 39 19 45 -10 -33 1 44 72 121 142 94 48 69 96 58 59 112 109 240 261 45 160 117 174 347 259 189 184 234 215 169 150 121 122 239 351 383 416 428 442 466 468
-22 54 13 35 44 125 73 109 173 158 208 190 246 131 110 60 44 83 79 121 135 220 191 224 313 405 161 250 234 182 163 196 180 191 424 484 500 493 482 548 566 565 546 540
29 26 -6 30 65 118 116 129 105 80 140 178 232 135 151 98 16 68 58 70 67 105 141 274 337 229 338 266 343 384 367 442 541 557 601 628 662 648 636 648 642 653 707 664
28 25 -7 35 -24 48 78 78 31 61 51 61 102 82 113 -38 -90 -45 -35 -25 16 0 61 112 271 362 575 652 671 544 517 523 594 627 680 659 705 698 732 761 759 750 761 735
28 17 -22 24 33 17 -2 9 -21 -7 -7 11 48 78 -25 -88 -114 -69 -40 -72 -25 -18 24 70 105 248 519 613 568 609 653 731 760 813 800 806 782 644 686 758 878 811 769 728
-52 -29 10 17 49 40 7 -31 -30 34 81 38 -1 25 -8 -84 -131 -106 -47 -45 -11 26 48 64 111 160 315 438 493 621 696 778 874 937 991 1009 956 902 872 884 804 744 666 526
-69 4 23 8 64 29 -11 -37 -58 46 48 12 49 62 54 -7 -83 -56 -45 -17 29 74 118 166 175 205 282 375 499 662 784 849 929 996 1039 1038 963 880 840 781 725 623 495 525
1 10 -18 -22 -6 11 -19 -49 -43 18 61 9 76 138 123 72 87 120 57 18 69 114 165 208 250 316 337 404 515 696 795 880 961 1065 1054 1092 1058 826 811 768 473 416 415 287
12 1 43 92 90 39 -13 28 89 76 85 48 95 66 36 48 60 91 155 223 218 204 155 161 200 266 346 422 492 590 700 768 825 877 924 933 1078 1290 814 522 437 343 225 184
23 -5 159 25 8 22 103 117 112 102 27 10 33 29 29 -9 36 110 191 275 300 313 353 373 343 369 366 426 533 704 841 832 837 841 829 717 614 510 328 289 260 241 240 207
98 102 38 22 -27 53 124 129 103 38 21 32 14 34 43 58 37 154 157 167 261 350 416 452 469 464 427 619 612 577 569 551 487 484 292 172 160 145 133 148 174 179 214 209
47 -13 38 86 78 8 53 91 52 26 13 42 57 50 57 95 55 88 170 197 215 275 326 368 427 465 306 333 294 234 238 213 171 119 106 115 123 155 163 165 168 171 167 181
56 71 49 61 64 64 61 57 69 40 27 36 53 82 118 149 165 177 201 214 304 312 303 342 344 293 299 309 316 341 306 248 215 184 164 184 170 176 181 184 184 169 141 95
67 77 74 77 51 28 -11 -2 68 86 65 63 87 112 149 194 237 272 283 274 344 362 351 359 354 312 290 278 256 243 232 210 210 209 179 159 154 145 128 136 135 152 156 141
127 132 112 58 24 16 36 151 160 146 102 91 144 190 198 229 248 262 270 305 334 391 375 308 263 266 266 227 214 201 218 226 217 193 167 153 120 97 96 105 125 149 152 146
93 98 97 94 67 48 102 142 144 118 97 129 215 254 266 284 314 325 331 384 421 405 347 286 269 250 235 225 212 205 207 208 203 191 179 171 164 156 153 143 133 126 128 133
67 67 78 80 103 79 75 101 98 102 127 164 225 277 329 336 346 379 385 442 371 299 243 217 213 231 210 208 202 205 192 171 158 161 162 173 168 152 140 146 135 132 127 111
52 47 55 71 104 127 103 73 93 142 178 214 272 293 318 319 340 358 385 368 309 276 257 234 218 188 184 180 179 167 150 152 154 141 142 144 147 148 147 141 142 133 125 102
36 45 54 67 97 124 125 132 151 185 209 241 286 332 383 388 408 425 363 301 289 299 280 264 234 235 215 217 191 163 155 165 158 142 136 135 141 144 134 126 120 111 115 120
35 59 62 80 96 118 164 184 195 210 229 241 268 298 330 321 276 281 310 246 272 274 247 243 226 219 207 183 168 157 151 161 156 150 140 120 117 130 126 109 98 92 122 120
57 66 63 89 129 167 189 222 256 290 315 332 346 321 303 321 339 283 269 264 286 269 224 200 188 173 148 127 115 116 124 132 133 121 110 103 91 98 115 114 108 108 109 123
71 78 88 86 137 168 194 207 268 295 315 323 301 270 257 235 253 207 220 226 247 240 236 211 187 150 119 107 116 130 132 110 103 101 94 93 103 107 103 95 99 105 109 99
61 105 102 103 99 115 140 160 198 211 251 278 266 242 240 229 210 188 187 191 198 199 188 155 115 89 85 90 104 113 107 108 103 98 107 95 95 98 106 106 105 102 94 84
139 124 110 131 147 161 165 184 202 194 189 187 196 168 161 142 138 144 158 171 169 137 109 90 72 74 78 84 91 88 89 94 99 94 95 100 92 90 94 93 91 85 76 75

GFSNGP_con_3kmhel_111.txt.gz
Helicity
113 35 62 71 45 -4 28 39 35 8 -0 17 47 -3 -46 56 -26 -10 52 138 409 227 25 109 127 129 110 101 76 85 86 77 41 50 65 71 59 51 31 28 34 50 53 44
44 43 50 33 16 26 21 26 51 34 12 -18 41 -4 -14 -31 -2 -95 46 81 204 76 154 200 160 143 158 111 127 98 60 44 37 74 88 93 82 67 75 56 45 63 89 90
94 128 108 27 18 9 23 28 22 11 11 16 14 17 31 100 16 -0 20 -12 80 186 205 318 234 176 139 165 110 137 101 79 70 78 99 108 109 104 112 154 165 177 181 182
63 48 53 84 131 56 53 48 66 31 39 34 37 66 162 142 60 42 -7 8 23 27 16 90 98 127 25 139 182 120 122 125 116 106 110 123 167 222 238 244 251 246 240 237
97 73 39 -12 -7 49 69 22 43 12 130 116 83 60 58 68 31 51 8 5 18 -33 -35 29 88 52 74 105 160 123 49 55 119 149 193 243 289 296 287 311 310 299 269 264
161 91 22 -14 50 16 -16 -8 78 83 91 114 96 14 46 70 77 63 57 17 17 18 -5 -1 75 120 187 192 195 86 90 114 133 227 293 289 304 330 354 364 364 356 365 341
179 84 54 -4 -38 -27 21 7 126 67 71 60 45 49 48 68 54 52 61 51 71 49 17 5 54 68 189 271 283 211 291 354 301 302 322 341 359 345 375 425 458 449 449 418
219 64 90 31 49 30 21 -17 -39 -11 22 41 25 37 34 44 41 30 17 31 24 29 48 62 40 70 119 230 245 236 334 379 456 368 350 396 464 478 522 559 609 601 658 660
80 38 12 5 -9 -103 27 48 -4 -12 -8 9 3 -1 32 54 56 35 52 19 7 22 52 84 124 102 158 184 183 252 312 356 421 404 426 409 518 542 614 646 722 730 742 770
14 30 20 22 23 -25 -31 -32 -11 6 42 59 38 31 27 24 50 48 55 36 19 45 82 98 130 164 168 217 197 273 384 465 560 633 691 707 746 735 721 657 704 843 858 930
6 -30 53 47 125 91 53 -36 7 69 80 65 40 41 10 37 27 34 31 24 56 78 89 110 114 179 204 212 281 369 464 508 597 689 761 839 900 903 1009 976 1022 1206 1153 895
197 124 204 316 274 92 44 60 65 63 50 45 28 23 4 51 22 -22 -18 23 47 91 92 97 131 157 180 205 239 308 407 457 506 589 675 778 882 1000 858 708 835 860 690 380
44 -13 59 31 28 27 40 48 61 55 24 -6 1 6 19 2 -14 -13 -5 13 61 101 108 91 115 108 125 167 226 319 399 446 532 604 665 727 777 857 969 817 824 694 539 362
82 13 -2 43 7 10 15 67 49 23 13 -3 -37 -32 -32 -30 -24 10 17 15 63 122 158 142 137 150 154 159 220 298 369 436 464 479 488 529 568 530 524 506 416 434 304 249
98 81 62 63 45 21 12 17 32 16 -0 10 -14 -29 -21 1 18 37 42 52 71 126 163 174 155 165 185 218 266 305 331 355 389 423 419 440 455 472 381 321 289 268 256 286
36 32 75 94 108 91 33 10 -1 -11 -4 -5 -15 -4 -3 26 35 66 82 75 70 79 128 184 220 186 191 224 270 317 348 347 359 360 367 363 305 275 244 236 240 230 214 184
1 17 33 54 57 55 25 2 8 -20 -14 -19 -10 5 24 62 97 113 113 113 123 130 116 125 118 157 162 133 144 164 175 216 235 237 222 193 199 216 198 192 191 167 147 123
19 21 22 21 23 14 -2 -14 8 21 19 6 27 47 75 90 92 101 101 115 148 172 159 123 139 156 162 153 148 144 157 172 189 199 181 181 183 187 183 168 147 138 133 132
19 10 7 10 22 22 3 18 35 43 56 50 53 79 94 111 123 133 138 173 161 173 158 152 177 182 186 191 178 162 157 161 175 181 177 187 184 170 159 137 133 119 104 107
27 23 15 14 35 49 20 28 40 55 69 89 104 122 132 141 148 165 178 208 172 145 156 172 195 197 180 183 182 172 184 189 183 165 156 168 164 157 147 143 125 121 127 134
33 34 23 21 21 39 59 47 56 72 93 99 117 140 153 177 187 180 199 213 176 158 170 187 183 176 171 178 179 168 174 182 171 149 148 147 150 139 137 131 129 123 115 111
-1 2 22 28 33 44 66 74 87 101 118 133 151 181 207 204 211 240 222 178 166 173 176 178 177 190 187 208 210 216 206 194 169 156 155 145 141 131 120 108 99 97 93 83
-1 -5 9 25 48 56 101 121 125 140 152 153 163 178 201 190 174 177 191 156 161 182 190 197 223 249 250 231 215 201 194 196 183 163 138 121 110 104 95 87 88 92 83 80
4 5 5 30 69 84 112 119 162 182 209 227 228 200 190 206 227 199 197 204 204 207 206 201 222 248 248 237 236 215 180 157 144 123 107 101 93 91 86 79 78 75 80 86
40 22 35 63 76 91 124 127 171 188 200 221 227 224 218 200 203 197 196 188 212 220 217 220 232 243 209 197 196 189 159 129 109 98 87 80 79 82 77 72 67 69 71 74
38 61 66 85 91 110 125 132 156 156 161 185 205 199 207 224 232 221 204 190 195 202 205 193 178 185 176 157 147 136 114 92 84 80 78 76 77 75 72 68 66 65 66 69
82 71 83 98 107 117 128 140 154 155 146 153 177 176 192 193 195 190 188 184 181 175 170 166 159 144 136 135 127 109 90 75 72 72 71 70 67 64 63 61 64 68 75 78

GFSNGP_con_3kmhel_114.txt.gz
Helicity
59 37 75 108 47 24 70 52 69 72 74 81 62 46 50 66 76 -2 -47 -151 -77 235 351 281 171 189 204 131 100 117 111 78 88 75 78 79 54 37 41 49 39 41 68 76
43 33 43 75 77 75 88 87 92 50 26 57 -19 48 36 29 25 1 -55 -114 -102 80 320 340 204 221 217 148 120 124 111 96 111 85 88 71 63 57 48 43 65 72 65 74
-6 44 57 83 59 88 94 83 79 82 83 19 19 19 17 30 71 11 -14 -50 -39 17 275 328 211 262 288 176 130 127 106 90 104 94 91 91 91 88 82 128 136 145 153 138
71 89 97 72 121 104 43 57 111 103 75 55 40 24 61 100 79 32 2 -9 -3 -59 -19 43 51 125 211 255 188 125 107 93 93 89 87 105 132 189 198 214 211 193 191 189
107 92 78 56 58 47 63 1 34 40 47 60 51 70 81 106 80 20 26 15 -20 -22 -21 -13 -19 42 133 201 203 176 103 116 105 92 123 197 215 221 220 242 274 284 243 239
116 49 20 12 17 102 44 -83 1 130 75 83 85 53 68 57 48 34 48 23 -8 -3 -16 -2 6 16 43 209 147 216 92 55 82 142 149 176 220 259 281 304 312 306 329 325
185 115 49 61 18 -41 -33 -54 -44 184 102 38 39 37 48 65 52 33 39 13 -0 -9 -28 -9 41 53 26 172 206 218 190 257 198 159 201 229 258 280 309 322 350 371 398 378
82 145 18 23 50 13 -10 5 32 58 -11 49 46 38 44 64 45 21 23 9 -16 -22 -23 -7 37 54 60 129 186 176 260 279 306 300 319 329 382 361 387 412 444 435 449 440
42 31 9 17 -5 19 -26 -5 44 37 18 12 32 42 38 38 43 44 39 12 -5 -20 -4 19 44 96 93 110 143 241 284 338 309 353 429 384 446 479 484 516 564 518 520 560
34 37 19 4 7 4 -89 52 14 3 32 48 38 44 45 34 35 46 27 13 -15 2 27 31 62 82 130 141 135 248 375 427 450 416 448 426 412 445 511 453 596 621 594 662
41 124 36 15 85 67 17 18 81 47 53 53 34 26 19 3 17 19 19 14 13 22 43 61 75 101 124 147 173 233 302 409 455 523 550 541 433 417 520 566 640 660 696 597
164 185 177 116 75 82 77 62 33 50 55 38 12 2 7 -4 10 15 1 7 19 53 68 76 80 109 133 125 167 244 288 305 372 475 528 584 647 691 605 409 458 529 448 582
24 82 -10 -17 23 19 20 96 104 44 65 13 -7 -17 -10 32 39 15 11 15 27 22 53 74 91 103 97 120 138 202 297 323 361 388 450 515 557 603 729 601 649 664 615 494
37 70 33 38 43 5 -8 -13 16 25 12 -0 -13 -13 -7 -2 11 24 35 8 28 44 61 97 122 114 162 162 164 196 271 340 364 386 418 455 490 517 532 599 659 729 555 389
50 27 20 27 76 77 28 9 19 8 16 1 3 -5 -3 9 16 31 35 32 39 44 64 77 127 118 159 187 247 273 277 300 348 380 403 429 467 497 534 529 498 458 372 300
37 15 38 57 64 69 67 46 4 7 15 -1 11 10 18 26 30 40 49 55 51 33 33 74 107 113 143 181 237 290 324 340 365 389 402 412 412 421 387 360 328 297 267 224
-9 14 28 43 41 44 36 20 15 32 45 38 38 26 31 51 63 66 59 64 77 64 66 77 84 128 181 215 218 228 274 310 286 290 286 266 254 245 204 191 199 220 222 178
15 17 13 15 17 12 13 12 6 18 39 55 50 35 51 62 56 62 70 68 94 114 125 110 109 122 115 102 96 108 138 162 187 206 197 206 198 196 205 212 191 183 167 155
20 20 22 17 17 12 15 12 7 25 42 52 58 63 79 94 81 84 91 118 119 119 122 118 134 129 118 108 108 111 134 148 159 161 180 212 223 195 192 174 153 141 124 127
26 29 38 36 29 34 27 25 21 30 39 63 74 81 101 114 108 113 128 158 132 105 106 127 137 153 150 148 141 141 159 175 189 188 186 184 174 169 159 151 138 138 134 129
28 26 25 24 25 29 35 34 42 50 55 66 75 94 111 123 131 122 140 148 140 132 146 156 145 134 136 146 163 179 173 171 181 181 172 162 165 154 145 135 128 117 117 112
12 4 13 21 27 31 49 52 55 69 78 90 109 117 131 134 147 170 163 132 127 155 160 167 157 157 151 165 161 174 174 175 165 150 148 134 128 120 114 106 99 86 82 81
-21 -21 6 36 38 27 60 85 84 92 111 122 124 134 149 149 132 127 145 128 130 155 165 166 179 196 200 182 179 186 183 174 160 144 127 108 97 88 81 79 76 67 66 66
-33 -24 -7 8 45 60 65 77 111 128 148 171 187 177 160 163 176 157 152 160 177 190 183 176 183 193 181 172 176 183 179 177 166 140 130 124 105 88 77 75 81 73 71 75
11 1 13 37 46 47 74 86 117 140 170 192 205 206 199 175 151 149 165 172 196 206 208 212 210 215 192 191 194 187 177 163 138 126 115 102 93 81 71 71 68 65 62 59
60 64 57 57 51 74 97 113 122 133 151 177 197 197 205 211 204 189 183 182 191 194 200 204 183 177 179 181 172 159 147 137 132 117 99 86 78 72 69 65 59 53 52 56
95 75 69 70 64 70 88 112 133 144 145 156 177 172 188 196 197 191 185 184 193 195 181 171 172 160 147 153 156 143 128 112 95 78 68 63 61 57 57 54 55 58 60 60

GFSNGP_con_3kmhel_117.txt.gz
Helicity
66 67 74 163 243 137 144 92 108 72 75 48 -5 -7 -23 -12 7 33 17 -16 17 -12 -105 -1 340 262 185 227 201 170 100 96 76 84 101 61 46 19 29 23 26 60 75 95
79 44 48 65 45 57 66 38 27 -2 9 -21 13 -8 -6 6 38 32 36 55 36 -30 -36 183 297 310 214 270 257 143 102 98 83 114 104 63 52 36 33 37 34 60 83 89
93 63 37 87 41 13 16 30 47 21 -13 10 10 17 26 48 49 60 79 85 47 -24 2 8 176 202 202 248 375 182 107 96 98 117 110 85 71 61 55 89 89 91 100 117
27 40 134 73 78 66 42 32 41 24 4 32 23 49 63 37 82 83 65 46 -4 -28 -22 39 -10 46 184 224 300 180 118 116 124 129 112 106 111 153 160 163 152 132 149 142
19 12 14 9 5 34 75 87 78 76 102 63 47 43 52 89 79 42 28 4 -21 -6 -22 -25 -19 -10 95 93 291 189 158 122 123 126 130 177 217 210 204 243 258 245 214 211
86 83 69 16 36 64 61 9 73 17 -15 55 57 39 23 79 67 29 23 13 -0 23 -19 -11 1 5 6 82 353 305 156 110 120 118 167 205 252 282 298 327 339 330 325 287
177 130 56 5 5 4 1 10 -32 -28 117 115 43 61 74 67 60 40 27 18 -6 -22 -38 14 -3 31 14 13 151 222 373 271 211 206 215 234 291 310 352 364 377 381 381 341
51 49 22 27 14 16 -4 -86 -22 94 157 99 64 48 74 55 38 25 38 1 4 -19 -24 20 14 24 27 29 80 121 236 346 331 269 259 291 313 311 356 398 419 409 424 405
40 31 20 -7 19 1 -30 -58 73 65 12 20 42 48 32 21 25 27 29 13 12 -2 -34 9 33 34 37 63 50 32 147 321 382 344 350 344 349 366 405 445 462 441 452 451
67 30 25 7 16 8 2 40 -0 24 38 47 34 24 10 20 23 17 17 2 -5 -8 -13 26 55 31 56 54 74 148 207 294 324 396 342 382 427 577 483 497 537 488 472 471
232 86 96 -8 29 53 67 87 64 41 59 54 28 22 13 17 32 13 3 -3 -16 -16 -21 26 63 65 69 86 58 111 212 320 325 408 475 505 525 442 489 437 427 501 517 470
41 166 21 60 57 81 76 86 70 73 80 41 21 5 -6 2 21 7 2 -6 -14 -5 3 31 60 88 94 99 110 123 177 246 353 557 320 298 381 399 290 245 331 347 344 283
7 42 -34 -4 4 31 -5 -7 38 103 77 19 19 1 -13 -32 2 19 -2 -8 -16 -12 -4 19 63 86 106 112 114 148 179 231 305 340 439 398 489 467 588 503 424 402 401 379
-28 2 -0 10 -12 39 19 11 10 11 22 3 -9 -16 -11 -25 -14 -6 6 -6 -17 -9 4 21 27 52 74 114 155 182 249 260 282 298 347 372 419 471 560 629 608 624 560 455
-3 5 -0 9 33 54 46 24 25 37 33 28 16 -4 -3 8 -0 -7 -4 -1 -8 -4 7 24 51 83 82 121 171 240 243 299 329 349 368 431 468 526 536 572 529 500 475 430
34 25 41 50 49 56 54 50 31 29 32 35 26 24 28 33 22 11 12 23 7 10 9 12 41 72 90 121 160 218 279 318 330 388 449 493 502 524 532 474 449 413 395 313
-13 29 42 36 29 20 17 8 -1 3 21 24 30 23 28 37 37 34 32 24 30 50 58 40 32 52 91 123 169 234 272 283 307 319 328 352 361 374 365 338 314 319 258 179
8 16 24 24 28 22 16 14 12 10 20 17 15 23 35 49 56 51 45 34 59 90 90 64 48 42 50 70 78 107 159 199 220 244 242 268 266 246 241 234 216 197 177 182
38 29 27 33 34 23 14 10 10 13 6 18 32 43 51 63 66 65 60 78 82 67 76 82 80 61 55 60 56 61 79 101 127 145 162 179 197 203 195 185 173 169 151 126
33 34 36 34 37 39 31 29 25 36 36 44 49 54 61 62 67 78 83 99 97 78 75 77 81 84 76 77 78 80 100 123 140 156 169 186 185 171 147 139 126 113 95 98
25 33 38 31 22 24 31 36 37 50 54 56 57 64 72 76 81 75 84 88 90 93 103 116 107 94 79 80 86 82 87 107 133 139 152 174 173 151 131 112 97 91 102 104
27 31 19 17 29 44 58 60 62 63 73 85 91 92 95 98 101 113 114 88 88 108 115 127 121 117 103 104 97 103 114 128 137 124 112 97 97 97 91 85 92 93 93 92
13 14 10 18 23 28 62 103 98 89 91 100 104 110 113 106 97 94 101 109 109 129 132 135 132 145 146 129 128 130 129 129 129 121 108 99 93 89 84 80 79 79 87 84
-2 8 11 14 25 51 92 103 111 114 118 132 140 140 134 141 147 132 132 139 149 152 152 142 150 160 149 139 143 146 141 134 128 124 117 115 100 93 101 95 92 80 75 78
41 41 45 51 70 83 93 109 123 135 148 159 165 161 161 155 143 140 143 152 164 155 161 183 184 173 162 159 156 156 153 151 145 135 123 111 104 100 88 77 72 67 65 64
84 90 87 82 84 83 86 86 112 126 140 156 169 166 161 167 169 167 168 174 181 181 174 170 159 148 153 157 161 160 151 132 126 123 112 101 88 79 72 69 67 62 61 58
96 77 74 81 87 88 88 81 79 90 105 115 148 139 147 154 156 158 160 167 173 174 162 149 149 147 140 135 132 125 119 115 110 99 93 84 74 67 62 60 56 55 56 55

GFSNGP_con_3kmhel_120.txt.gz
Helicity
41 95 87 45 188 193 253 241 244 161 158 121 108 87 60 31 30 14 4 9 24 45 40 23 5 19 110 138 82 181 219 149 132 107 91 74 93 131 112 85 53 65 79 74
11 57 75 111 57 69 153 131 102 96 130 49 40 32 21 24 26 13 22 66 75 87 63 36 -3 14 108 103 153 164 146 156 108 103 86 73 106 131 108 84 66 74 84 123
17 23 81 93 119 59 88 97 54 112 75 56 34 21 19 27 36 35 93 106 101 95 59 30 1 17 91 89 162 138 194 170 111 79 87 71 107 126 125 118 108 120 131 133
-7 -1 22 24 68 59 97 79 50 29 18 31 41 55 49 -1 4 89 101 106 90 58 34 14 11 9 22 99 204 197 225 157 116 100 100 67 104 160 204 188 157 153 159 156
-33 -42 -18 13 20 37 71 111 103 94 104 106 106 89 7 114 200 168 126 86 47 15 -4 6 16 16 28 103 113 233 213 166 152 114 116 115 208 230 219 255 224 196 176 186
53 10 31 16 26 23 33 40 103 126 115 65 45 80 153 141 127 102 81 51 42 9 -6 -9 9 22 26 -1 94 123 220 252 179 134 164 196 247 287 296 306 287 258 263 235
134 70 44 -17 16 2 -4 -8 -31 -93 -66 71 29 64 120 72 69 57 39 48 34 7 -17 -28 8 11 7 20 67 72 148 251 169 204 276 265 287 308 336 364 376 358 364 318
19 5 -9 31 1 19 8 10 -54 -11 58 61 20 34 53 55 86 52 40 38 22 -18 -36 -39 16 16 12 37 49 110 38 137 351 328 329 322 350 358 376 419 448 440 452 439
55 31 -8 -10 -4 12 9 8 27 78 17 25 39 37 34 33 39 44 24 23 22 6 -10 -35 16 31 47 64 68 48 52 247 418 459 382 359 388 412 442 430 453 455 484 479
148 -60 47 10 43 41 -7 29 98 42 19 22 31 31 27 31 24 32 19 17 10 15 -5 0 27 57 71 77 62 104 72 206 192 434 573 437 477 469 460 441 466 484 494 505
71 154 82 86 96 70 48 24 69 97 60 62 44 29 14 13 17 27 14 11 -4 -13 -25 -6 30 64 85 96 77 81 165 111 282 262 356 536 562 534 578 545 544 590 536 519
37 52 57 44 23 43 74 73 59 62 74 65 41 34 25 3 -6 17 8 -2 -13 -26 -26 -16 21 60 87 111 81 56 126 193 178 282 381 385 484 554 497 351 468 379 379 373
-27 14 -8 9 -2 9 40 20 10 21 29 14 31 16 34 17 -1 -6 8 3 -2 -34 -27 -20 16 63 92 96 85 124 131 181 279 336 433 468 486 519 624 458 474 294 322 302
-36 -14 -29 -3 -11 33 37 28 22 34 39 50 37 33 30 32 12 -3 -16 -22 -13 -16 -25 -11 21 67 79 100 114 159 207 208 251 266 314 267 473 404 394 508 572 558 506 493
-6 1 -1 1 11 20 17 25 29 34 35 42 46 35 41 44 37 13 -6 -31 -23 -10 -5 -12 16 78 90 92 139 171 195 271 311 354 452 432 506 505 458 528 646 662 645 537
-15 5 8 8 -4 -3 1 2 0 -1 5 16 27 27 32 29 35 29 13 9 15 15 -5 -27 -5 44 81 102 111 145 211 259 272 320 388 442 472 544 624 605 587 508 394 359
1 17 14 14 14 11 6 1 -7 -7 -5 8 12 17 12 25 36 36 28 29 37 31 14 -13 -26 -21 25 65 96 105 127 189 260 293 339 377 408 435 415 408 412 418 421 326
20 22 16 13 18 18 12 6 5 4 -2 -3 1 4 19 27 34 32 38 46 43 50 64 53 23 -5 -21 -1 34 73 121 163 190 209 218 257 290 299 293 277 258 257 243 243
39 31 27 30 29 24 23 22 22 12 6 1 3 17 24 17 24 34 41 45 47 55 80 67 65 48 40 32 12 13 35 64 98 132 156 183 202 197 192 189 184 189 183 183
47 43 39 38 39 38 31 25 18 28 32 30 21 21 29 31 28 31 39 62 72 65 73 76 70 67 64 63 53 44 53 69 85 95 106 131 146 157 162 168 166 173 175 166
45 43 42 41 40 37 39 39 39 41 51 59 57 58 47 43 47 36 38 43 71 86 96 104 93 74 66 58 58 66 76 89 103 111 117 133 152 168 176 180 173 161 140 118
27 32 37 42 43 43 53 63 77 80 90 98 98 88 74 72 60 62 81 79 69 92 94 100 105 113 93 87 81 86 88 101 109 116 129 132 140 148 146 131 121 105 100 105
36 23 23 35 42 58 69 94 106 117 124 131 126 122 120 111 99 77 68 86 90 107 102 110 112 113 111 108 107 108 116 122 125 122 119 117 113 108 104 101 103 103 105 109
26 25 33 40 41 61 90 113 125 142 152 153 149 153 144 121 119 108 94 101 118 128 133 125 126 130 130 126 131 135 133 134 136 140 138 133 122 117 116 111 112 110 110 115
51 55 65 65 69 93 88 101 97 110 122 133 147 154 163 153 137 126 117 110 123 124 138 159 155 153 154 152 148 146 149 148 141 142 135 127 127 121 121 123 112 103 101 100
87 90 81 70 66 71 85 93 112 104 99 103 111 121 125 129 130 128 129 133 138 145 150 157 157 157 163 165 166 162 160 154 146 141 128 124 120 116 110 108 103 100 94 88
77 50 48 41 51 53 65 78 73 73 69 80 85 87 97 108 116 115 121 128 140 151 151 150 157 161 157 162 166 166 163 161 156 144 136 127 117 109 100 91 87 84 81 77

GFSNGP_con_3kmhel_123.txt.gz
Helicity
36 51 40 7 21 -21 47 107 105 101 53 -23 -3 38 40 52 54 63 49 40 25 36 71 143 113 54 34 18 -14 55 68 116 115 112 100 124 138 149 143 120 109 113 117 118
-6 0 28 41 26 -4 11 44 97 105 112 39 3 39 38 40 55 50 34 31 41 128 124 90 81 68 46 24 23 40 48 57 116 131 100 104 132 140 116 123 140 116 132 196
4 25 26 36 70 21 5 -8 21 103 75 31 44 37 76 76 57 43 22 99 120 138 96 76 67 64 55 30 30 16 85 23 133 137 81 79 140 146 140 165 186 209 189 168
-2 8 -32 -11 29 57 56 42 62 42 33 23 43 106 100 61 14 18 186 217 175 142 103 59 62 66 33 33 26 13 113 31 122 103 81 98 144 161 231 215 210 223 201 169
5 -26 -2 27 44 101 106 73 42 57 91 112 164 90 54 218 299 323 298 204 138 98 53 47 57 55 28 29 33 27 103 47 159 155 83 106 184 283 260 274 253 246 215 205
68 2 5 31 -24 -25 34 53 121 147 122 107 104 17 117 247 248 213 165 163 115 96 50 56 64 52 30 24 28 58 52 78 181 173 108 173 264 288 343 320 295 285 294 256
74 68 39 81 49 12 -4 21 1 -23 -46 -55 -48 37 83 77 127 108 111 77 75 53 35 39 37 45 28 31 36 61 34 83 139 108 193 276 307 318 375 375 368 354 370 342
20 30 24 -8 39 -25 6 15 -87 -42 -62 -1 48 -5 12 41 63 107 98 66 58 40 23 17 13 0 10 39 58 90 97 107 60 170 262 373 376 375 402 421 415 390 409 418
55 -7 5 -42 -29 4 10 20 -7 -8 22 3 10 20 29 27 36 32 56 71 65 48 28 8 8 7 15 52 96 119 95 -11 109 293 423 393 366 419 483 458 461 414 422 438
105 55 86 44 64 20 15 34 32 25 14 30 21 29 24 23 19 27 39 48 49 42 33 23 -1 5 16 70 100 98 70 76 85 128 412 533 509 477 470 478 478 463 470 483
59 51 83 59 55 43 40 24 28 34 60 50 38 25 27 30 23 16 24 26 31 27 34 36 9 10 54 98 97 99 85 132 106 158 224 555 699 635 568 525 428 499 479 517
19 16 42 71 69 23 21 28 17 7 21 27 20 17 38 45 31 17 3 9 19 32 44 18 18 19 68 94 95 101 81 131 155 151 203 191 512 495 392 422 527 609 632 647
10 28 14 -3 -4 -8 2 4 4 19 28 36 44 34 34 29 34 21 2 -2 3 31 23 22 7 34 67 84 97 119 145 172 212 293 293 296 263 283 526 482 345 324 305 332
-5 -3 -18 5 3 11 14 10 16 32 22 31 36 37 36 30 34 29 15 -3 3 13 18 15 6 40 65 74 107 134 170 234 212 254 338 387 418 393 320 398 578 548 373 318
-4 -23 -10 -2 -5 2 -2 4 7 15 8 16 23 20 24 21 28 18 10 13 9 10 16 21 16 38 63 70 92 140 164 197 232 266 324 343 399 471 490 568 595 562 558 520
0 -4 7 9 6 9 10 15 12 10 7 4 5 11 15 15 22 15 12 17 22 16 8 3 -2 10 55 51 76 116 170 217 249 286 312 322 369 409 489 593 588 560 546 517
23 22 13 13 17 20 22 24 19 18 12 7 1 -4 5 -2 25 20 19 15 27 26 16 2 -11 -17 -2 40 53 62 99 168 225 265 336 391 403 396 417 432 471 508 502 381
34 33 27 22 26 23 21 20 19 16 19 11 7 4 4 17 4 12 15 11 16 27 36 23 9 -2 -10 -5 27 58 78 84 130 201 231 282 324 316 352 414 353 335 354 337
40 40 38 33 30 23 26 29 25 16 26 25 30 39 35 24 11 12 21 31 36 45 54 43 39 31 22 15 0 -6 19 61 98 125 171 193 211 217 224 232 241 250 252 242
57 58 47 43 44 46 47 53 46 52 57 56 45 62 66 58 39 29 35 47 56 53 55 60 55 54 42 33 18 10 21 34 49 66 81 103 125 149 171 177 170 174 178 183
48 50 53 52 52 51 57 48 57 67 72 81 86 85 80 77 72 69 54 48 61 67 71 84 82 61 56 50 50 54 60 67 79 85 95 110 125 141 156 167 173 176 175 165
54 50 46 39 28 24 35 57 78 95 109 118 114 103 79 75 71 82 96 89 65 87 78 85 89 101 80 77 76 87 96 101 105 107 115 126 137 147 153 158 165 163 158 145
44 34 36 32 33 26 33 75 89 114 133 147 159 168 151 130 132 128 91 99 84 94 90 100 107 110 109 99 97 98 110 120 122 119 120 125 136 143 145 146 142 129 118 104
39 39 40 38 1 19 90 98 91 96 106 101 120 137 167 132 93 98 81 86 97 107 116 110 114 120 112 109 114 119 117 113 116 120 126 131 124 115 110 107 114 113 114 120
49 21 23 66 50 77 63 62 52 77 96 115 108 100 115 118 126 99 88 87 95 92 108 129 129 129 127 126 126 124 125 127 126 125 121 118 114 111 111 106 100 103 105 107
78 78 74 69 57 33 30 38 50 79 89 101 80 74 71 65 65 72 84 100 110 127 130 130 128 128 137 142 142 142 139 140 142 143 137 129 124 123 123 120 116 112 106 108
60 70 64 50 41 21 19 14 30 67 70 67 57 38 58 60 64 70 86 93 105 117 135 142 145 149 140 141 144 143 144 149 151 138 133 129 125 119 109 108 109 110 105 92

GFSNGP_con_3kmhel_126.txt.gz
Helicity
35 26 26 7 4 2 -7 9 18 39 18 36 81 167 24 11 40 33 43 85 68 56 102 164 168 150 85 31 4 -7 -7 -8 46 43 75 90 108 102 151 160 162 148 162 148
-4 27 15 31 57 35 1 -35 -23 -4 2 86 -25 6 38 49 55 67 69 49 49 125 174 161 97 63 58 51 22 13 2 -6 8 92 70 91 113 163 148 140 172 188 197 191
14 31 21 13 21 45 -2 10 11 3 -27 37 2 42 124 141 157 111 52 79 199 248 251 210 160 136 68 50 24 22 21 8 10 91 61 73 93 174 144 140 255 268 248 233
3 4 -2 -1 22 110 27 -30 -4 -10 11 61 185 149 70 137 180 184 228 245 288 285 274 224 177 107 52 46 35 31 32 14 19 65 107 91 95 160 231 260 286 264 247 223
48 44 65 41 66 53 72 96 56 94 159 191 142 64 69 146 183 194 202 235 237 223 214 157 134 91 49 41 39 36 35 3 23 44 119 86 129 347 328 338 305 294 250 218
44 23 -1 -5 148 112 61 7 105 94 49 27 84 9 51 96 132 151 170 173 126 112 111 110 88 59 50 41 34 44 40 26 13 17 103 40 84 424 403 372 342 327 311 256
25 24 70 107 77 49 7 24 33 16 -21 -36 -25 10 31 39 55 61 74 106 75 88 64 43 25 29 33 40 43 49 49 39 27 34 53 52 35 430 464 423 407 368 363 339
15 7 49 52 -11 -52 -18 13 -36 -57 -54 32 15 33 16 23 24 29 44 68 103 89 64 34 14 17 35 33 66 57 61 66 65 35 20 2 138 446 473 437 442 388 403 409
-4 -19 -5 -25 -53 18 -10 -9 20 54 29 21 2 8 8 1 15 25 36 43 67 58 72 66 28 10 14 28 49 60 76 90 78 34 35 210 225 453 467 424 451 408 422 413
59 11 18 -47 -32 8 22 28 36 30 21 34 8 9 6 14 21 31 31 18 33 48 49 39 26 15 10 12 43 67 74 104 86 45 80 217 325 307 465 423 439 445 452 459
20 0 27 13 -4 23 14 -3 -10 -3 8 13 14 15 5 25 35 39 36 30 26 26 33 46 48 26 25 27 68 66 59 89 101 95 116 220 341 405 492 622 443 430 450 462
-13 -8 20 29 -2 3 7 -6 -12 6 17 25 38 43 45 38 41 37 40 38 22 18 37 37 13 -6 -10 58 73 74 65 71 95 124 160 209 264 266 384 635 559 582 540 585
-28 5 -18 -10 -16 -10 -3 2 12 24 18 15 20 32 31 26 30 26 34 22 15 10 16 -1 2 12 68 77 69 96 102 92 87 141 208 231 267 301 378 352 336 372 455 513
-20 -13 -8 5 -3 5 2 5 12 29 17 23 25 25 16 10 6 9 26 19 4 5 10 3 7 18 21 49 60 115 141 152 140 148 205 233 282 329 383 303 519 547 309 311
4 -12 6 0 15 12 11 18 19 24 19 16 16 9 9 11 7 7 17 19 5 -3 1 -3 2 10 15 21 77 89 144 159 168 204 259 288 317 353 397 423 471 664 596 556
10 39 23 24 20 23 25 27 27 22 15 8 7 7 -2 0 15 1 4 10 10 1 6 -6 -4 5 3 -4 29 71 113 195 211 202 244 273 297 371 428 483 537 546 603 659
45 46 35 41 39 36 39 46 42 30 15 6 1 8 11 6 21 -7 -20 7 -5 1 -4 5 -10 -16 -12 4 -21 15 67 129 189 223 243 237 264 284 296 326 400 453 430 446
59 61 53 45 38 33 37 42 33 27 30 20 18 24 33 34 17 -1 -5 3 14 7 17 6 4 -8 -8 -21 -1 -2 32 70 110 140 147 207 260 286 330 364 367 359 350 364
70 70 65 58 51 41 46 49 51 55 57 48 45 47 67 57 42 35 22 21 29 34 44 26 15 6 -4 -7 -21 -13 -1 16 44 74 114 152 193 206 224 235 238 256 255 268
62 59 56 47 43 43 47 46 45 56 59 69 78 81 81 81 68 40 42 40 41 36 35 50 20 17 11 6 1 1 10 21 27 37 69 100 122 137 159 175 174 185 197 199
61 56 54 48 35 30 48 48 67 82 88 95 114 118 110 115 110 93 118 63 56 53 51 61 74 45 29 25 22 24 30 34 43 48 57 72 88 105 119 127 136 144 162 172
59 47 54 47 39 29 34 61 51 69 82 108 133 156 188 149 120 115 108 107 69 80 66 77 99 99 68 60 55 53 58 64 67 70 78 86 98 113 123 124 127 125 134 146
75 54 48 36 24 11 -8 51 29 70 84 81 102 109 144 119 133 137 130 113 97 102 81 95 119 110 106 92 80 83 84 92 99 101 102 100 100 101 108 116 127 136 138 131
88 68 44 42 39 71 88 87 55 56 53 55 78 96 136 184 93 91 71 60 64 83 103 121 119 111 118 117 116 112 111 103 96 95 104 114 114 116 113 118 132 130 124 125
72 74 102 84 77 78 70 59 44 48 38 51 71 84 103 111 111 89 65 59 60 64 88 123 140 148 138 133 129 130 124 113 109 109 106 105 112 122 117 110 115 111 100 96
84 101 96 84 76 67 50 28 10 22 24 49 61 64 69 66 46 37 43 59 71 96 110 127 115 110 120 134 137 135 136 132 129 130 134 130 129 131 122 105 91 91 115 135
104 89 77 77 69 48 30 17 -6 -6 10 0 40 49 47 45 43 43 53 50 57 88 103 117 139 138 139 137 143 153 161 160 140 128 124 122 116 111 119 137 145 138 125 109

GFSNGP_con_3kmhel_132.txt.gz
Helicity
43 18 7 -5 -16 14 44 4 -10 44 20 -57 -92 -109 171 155 9 190 126 135 154 127 52 53 54 31 14 2 -14 -75 -96 -69 -42 -16 -12 -22 -7 9 38 77 91 18 133 190
27 36 -20 1 60 72 10 60 119 78 96 93 20 -30 6 79 44 74 40 87 96 74 42 -9 -20 -51 -46 -45 -65 -107 -109 -80 -40 -20 -8 6 -2 15 25 79 120 79 121 221
61 17 -4 41 52 34 8 133 82 93 72 81 90 32 58 43 57 36 12 28 32 -0 -36 -62 -90 -75 -79 -85 -72 -79 -90 -77 -27 8 15 15 16 19 17 79 94 114 98 184
21 -2 18 10 16 19 66 39 122 111 85 67 66 41 69 56 44 25 -12 -15 -16 -30 -95 -135 -129 -109 -97 -93 -66 -39 -16 -28 -28 16 43 23 20 24 22 45 65 85 111 203
17 3 -22 -14 65 18 24 42 86 99 97 89 148 41 93 41 11 -7 1 -25 -39 -38 -90 -90 -80 -55 -26 22 3 -17 -19 -3 11 52 45 17 22 25 15 50 70 -45 131 343
-42 -29 20 30 133 86 46 34 70 85 77 53 84 52 13 108 108 78 70 41 38 33 -0 -38 -45 -27 -36 -21 -14 -1 12 23 39 38 35 10 19 20 8 49 56 41 66 341
27 -18 6 31 98 59 9 -1 46 34 37 41 39 24 39 66 47 14 2 -9 3 4 9 14 -26 -40 -30 -17 -1 42 27 26 26 39 31 10 5 15 29 34 47 86 58 184
33 23 9 -0 -9 -40 8 3 18 18 -17 -5 -0 10 2 -22 -31 -23 -36 -40 -23 -17 -17 -13 -9 -4 3 23 26 38 57 55 46 47 39 8 2 -7 33 32 48 109 128 200
21 24 -35 -12 -38 -20 -7 10 -1 7 1 -4 -5 -18 -13 -15 -17 -10 -15 -18 -13 -1 9 4 -4 -6 13 48 63 66 43 49 49 46 40 -15 -21 -8 20 31 52 102 182 234
-24 -40 -36 -7 -31 -30 -3 29 39 -17 -8 -10 -2 -17 -11 -5 2 8 20 34 37 42 50 57 51 32 12 27 18 22 45 39 49 53 71 -3 -17 21 47 37 62 94 143 218
-14 -9 1 -38 -49 -13 2 -24 7 7 17 2 -5 -0 -0 5 1 1 7 13 20 34 37 33 25 15 13 26 19 28 49 69 64 69 89 12 29 2 20 35 24 95 165 209
-34 -25 -11 -17 5 6 7 6 37 27 25 30 21 22 26 36 28 18 11 14 21 26 24 29 35 33 16 11 -11 -12 1 23 40 50 90 57 20 3 85 81 60 153 196 255
25 36 16 20 60 62 51 41 62 59 53 40 32 25 25 33 24 21 2 2 9 13 16 20 14 -6 -38 -39 -35 -24 8 32 39 53 62 18 -9 -5 34 92 169 149 114 135
5 30 38 79 57 61 68 51 56 53 50 33 31 38 31 23 31 18 5 9 -5 8 10 17 8 -14 -33 -41 -37 -18 -2 30 20 51 60 28 64 49 39 72 131 195 191 155
111 142 127 109 101 84 50 33 34 28 22 28 34 32 32 24 29 14 17 41 -7 8 11 16 17 2 -28 -61 -55 -36 -14 3 20 47 70 112 118 154 188 222 229 222 205 247
141 119 86 77 61 50 45 43 42 37 40 38 43 42 40 47 47 45 39 40 26 23 17 19 20 3 -34 -58 -57 -62 -29 25 48 72 114 152 173 195 251 322 386 405 413 411
75 62 60 59 57 58 56 50 42 36 39 43 42 43 44 54 60 78 77 56 44 31 35 23 19 14 -14 -34 -40 -65 -30 -16 36 64 101 122 142 154 160 200 214 215 191 217
101 83 68 62 53 53 50 43 38 43 53 51 58 69 84 80 73 88 91 85 71 54 49 46 28 21 19 -9 -32 -49 -60 -12 -3 19 51 83 109 128 129 129 121 130 171 268
80 81 80 70 61 55 49 46 49 45 62 76 83 90 103 100 109 115 106 118 110 92 81 62 57 28 26 22 5 -28 -29 -20 -15 -2 16 45 63 74 81 74 79 103 147 213
71 72 76 59 52 62 68 65 57 48 62 82 103 120 152 168 121 109 85 89 80 89 82 82 70 45 31 26 24 10 1 1 3 1 14 27 39 48 55 68 65 86 120 145
60 61 65 65 55 55 60 52 72 94 111 119 114 111 117 113 105 91 83 68 92 99 102 106 95 49 30 26 32 31 32 27 26 22 28 27 33 36 44 49 62 71 87 105
45 51 46 56 60 48 60 70 103 83 60 73 71 71 81 93 79 58 46 48 74 92 102 113 87 52 40 44 33 40 35 35 35 38 42 37 36 36 37 43 51 62 85 101
65 64 53 48 48 63 100 90 63 51 57 53 49 36 42 50 55 27 29 44 67 101 99 88 79 63 56 47 44 46 46 46 43 44 45 50 46 41 39 41 45 48 55 71
82 62 53 81 118 122 99 67 73 74 58 59 38 26 25 30 27 35 26 30 48 61 61 61 69 80 68 54 52 46 46 48 51 54 58 64 60 62 62 60 63 62 72 78
63 76 112 135 126 88 66 68 84 77 68 57 44 37 34 20 27 1 15 30 48 48 35 41 66 86 71 68 67 66 66 67 77 80 75 71 65 62 67 66 60 64 72 74
124 116 113 112 87 73 72 80 69 51 68 71 48 40 35 24 27 31 24 29 34 48 53 44 46 60 70 81 87 88 88 84 84 82 83 85 85 94 94 82 76 75 74 80
186 142 132 111 96 78 71 67 66 57 48 48 36 25 29 29 31 31 24 26 29 44 55 59 61 65 70 85 97 100 99 101 106 102 109 110 105 92 90 86 83 84 94 97

GFSNGP_con_3kmhel_135.txt.gz
Helicity
111 53 43 30 14 1 20 39 24 12 51 61 69 -8 35 -8 13 33 13 44 85 80 44 84 52 6 4 0 -17 -33 -26 -15 -1 3 5 10 13 29 33 29 30 62 102 98
38 45 45 83 55 48 34 30 49 52 43 79 66 47 33 59 29 24 60 44 21 3 -14 -8 -29 -11 -53 -62 -75 -104 -78 -42 -18 -9 6 31 41 40 46 33 33 52 65 145
25 33 48 65 50 13 27 35 109 66 30 57 59 33 12 11 -4 18 14 0 -8 -9 -29 -53 -46 -31 -86 -90 -63 -51 -74 -77 -49 -6 11 40 39 42 55 58 40 45 64 100
13 39 46 21 19 1 60 68 75 66 55 47 47 54 97 20 -9 -23 -29 -27 -36 -50 -40 -31 -56 -60 -30 -42 -72 -75 -65 -42 -11 27 43 39 38 46 43 63 44 30 54 87
25 40 60 13 6 7 12 74 73 81 66 61 79 28 106 53 16 6 -13 -22 -28 -25 -31 -24 -22 -20 -30 -23 -31 -44 -5 40 41 38 44 43 49 43 41 67 67 42 29 68
15 14 43 18 34 20 25 66 38 18 -12 13 76 53 15 8 33 27 15 7 8 -2 1 7 8 10 6 13 13 34 37 22 13 28 28 35 38 39 33 50 56 54 11 25
24 27 8 23 32 6 9 -35 -15 -24 -64 -33 16 8 9 0 -18 -16 -20 -24 -10 -5 -23 -18 -16 -16 -16 -16 -3 17 30 32 18 11 10 4 26 37 20 18 59 35 -3 28
16 36 23 6 10 -10 -15 -24 -14 -14 -10 -19 -17 -11 -11 -29 -42 -9 -15 -16 -5 -1 3 2 5 -4 10 6 31 20 6 10 25 15 6 3 15 30 50 33 19 32 -10 33
31 23 27 2 30 -32 -27 -17 4 13 -1 -5 -5 -9 -25 -20 -11 -8 -6 -10 -5 14 34 36 38 25 36 58 53 39 38 29 30 43 33 34 29 43 40 69 20 27 -6 15
38 34 -19 16 -28 -31 -21 1 9 -2 -3 -2 -2 -7 -9 -7 -2 2 7 14 12 11 26 47 38 15 -8 6 28 24 40 59 51 47 78 103 91 86 76 56 41 29 34 31
-28 -5 -31 30 -35 -23 -5 -9 -6 13 11 9 0 3 -11 -24 -30 -28 -24 -22 -20 -17 6 28 35 20 2 -12 -15 -6 -7 3 50 57 57 80 88 85 91 86 41 45 64 82
-39 9 -22 -12 6 12 45 36 27 14 3 12 6 7 17 12 20 -18 -23 -15 -13 -15 -7 8 14 21 23 17 -2 -14 -13 -8 12 35 44 48 66 112 76 89 152 126 101 123
29 37 -13 37 73 76 56 38 41 39 35 25 28 30 32 26 19 6 -18 -17 -12 -18 -13 -13 1 13 14 5 -11 -30 -31 -22 -15 2 28 67 86 97 72 57 51 150 146 92
49 52 57 77 62 66 50 50 51 44 36 33 27 30 34 28 28 15 -3 9 5 2 12 -1 9 15 12 5 -16 -25 -20 -34 -23 -1 28 52 78 85 61 44 47 124 262 261
99 110 113 112 86 65 46 34 38 38 37 42 36 28 21 16 25 27 25 32 38 21 22 28 33 33 24 27 0 -30 -56 -43 -20 1 30 57 89 104 121 133 119 149 237 345
86 89 84 73 56 44 36 44 44 37 38 43 31 32 34 48 56 47 51 52 48 57 55 46 41 39 29 21 13 -15 -41 -45 -18 -15 6 47 85 115 136 144 166 169 182 189
55 38 49 45 43 39 42 42 41 29 30 38 36 38 39 57 62 67 86 90 83 78 73 65 63 45 31 21 21 7 -19 -26 -27 -32 -10 11 52 88 95 121 130 142 155 152
108 94 77 62 59 54 53 55 44 28 21 24 33 43 67 80 67 81 85 101 109 94 70 84 81 66 44 26 17 13 2 -19 -22 -16 -24 -4 9 39 64 80 82 91 113 176
76 64 63 60 63 66 64 46 38 31 39 56 69 75 77 83 82 72 69 97 93 78 101 89 87 74 61 44 27 11 10 4 -9 -15 -11 -3 -3 0 8 13 24 50 92 146
55 54 64 69 65 59 51 49 52 53 52 68 51 63 94 107 93 76 61 54 55 53 50 72 77 63 62 51 37 15 12 13 9 1 4 -3 -4 -4 1 13 15 29 54 77
47 43 49 52 43 37 44 46 62 63 58 72 62 58 60 54 60 46 45 49 61 61 69 76 75 58 52 44 35 25 20 13 18 16 10 5 6 11 9 12 18 26 34 52
31 28 31 48 46 41 54 53 70 61 67 65 61 50 48 53 53 46 23 28 46 62 62 76 67 51 48 54 37 32 26 22 17 21 25 22 19 17 18 17 22 28 38 56
50 32 33 46 52 55 64 95 81 66 62 64 44 39 45 37 43 42 49 42 41 41 53 61 59 50 45 36 39 33 30 30 27 28 34 34 34 31 24 22 24 29 40 58
64 41 50 65 91 101 75 65 61 59 61 54 48 38 44 51 40 34 34 27 33 36 39 45 50 56 48 34 37 38 41 40 38 38 40 49 40 38 37 35 41 42 48 57
110 99 114 120 96 69 72 57 53 67 69 65 58 48 38 27 28 27 27 28 36 39 39 48 56 55 44 42 46 49 57 56 58 53 50 46 43 45 47 44 45 50 56 61
121 113 99 86 83 81 62 63 62 47 51 59 51 53 40 31 28 29 25 24 27 36 40 36 38 42 48 59 64 67 70 73 78 75 68 62 56 55 58 57 57 56 55 62
146 129 108 95 89 72 62 62 63 56 53 49 42 36 36 32 33 30 25 26 27 26 29 31 34 37 42 49 55 60 61 67 80 77 83 84 80 67 63 60 64 71 77 75

GFSNGP_con_3kmhel_138.txt.gz
Helicity
39 46 61 35 34 40 45 39 66 50 42 72 38 29 -51 -60 -40 -38 -12 27 20 -10 -24 -35 2 49 273 300 131 91 88 55 34 28 35 45 59 56 55 55 79 86 75 65
51 56 68 91 84 54 61 60 50 29 90 77 22 16 -27 -15 -24 -61 -63 -20 1 -23 -28 -26 -3 -32 -36 16 8 -19 -4 23 29 38 44 46 33 28 48 66 65 67 88 82
34 29 49 71 82 35 43 119 59 23 29 41 37 24 -3 -16 -36 -58 -70 -66 -28 -29 -2 -27 -6 36 14 7 -20 -52 -40 -2 28 45 51 48 42 47 57 61 47 40 61 86
24 30 91 71 20 -4 46 110 56 19 38 60 33 30 83 24 -43 -55 -52 -50 -36 -11 8 5 18 24 35 7 -5 3 -6 12 15 20 11 25 31 39 73 70 46 33 51 87
35 49 73 88 14 4 39 129 100 66 49 38 44 21 30 33 -24 -47 -24 -30 -41 -39 -9 1 11 15 9 5 -3 -28 -26 -15 14 11 43 51 48 49 64 81 78 45 51 70
35 31 31 79 16 48 40 82 33 -1 -40 1 24 21 1 -3 -15 -22 -9 -12 -22 -25 -34 -23 -5 9 -1 -1 10 30 31 21 -6 14 27 44 37 50 63 65 72 58 34 46
52 48 27 82 -2 36 46 -35 -29 -45 -40 -39 -36 17 5 -0 -8 -15 -11 -1 -2 -18 -15 -14 2 20 25 18 26 40 7 -0 1 7 24 28 43 46 55 67 62 62 48 22
70 51 33 37 18 23 -38 -38 -28 -21 -10 6 19 13 -11 -18 -16 -27 -9 3 9 -10 1 -8 -8 -8 13 27 46 42 36 20 2 -24 -34 -15 9 36 53 59 75 60 64 26
60 34 44 46 -43 27 30 -22 -5 -1 -25 -19 -6 3 -9 -28 -40 -56 -48 -39 -28 -19 1 -6 4 -6 22 40 47 40 23 19 20 31 9 -3 -12 -0 36 70 62 73 55 46
49 32 47 1 -20 12 1 -24 -11 13 41 26 -14 -0 13 -6 -13 -28 -33 -33 -37 -34 -27 -11 -9 -11 -10 6 33 33 36 44 42 31 35 45 46 29 34 57 91 91 80 60
51 41 32 3 3 -7 -7 41 27 29 35 27 11 -8 7 17 18 -1 -6 -7 -4 -6 2 3 -5 -16 -11 -7 7 13 10 -2 3 15 18 41 81 63 75 83 97 112 104 85
35 28 20 13 19 34 51 42 30 22 15 14 18 11 24 30 28 21 -13 -13 -11 -29 -21 -21 -33 -32 -32 -28 -12 -15 -16 -21 -24 -35 -21 9 58 177 151 134 173 198 191 77
59 57 36 48 60 50 43 31 28 30 23 11 18 21 27 28 9 -14 -30 -27 -26 -31 -31 -22 -14 -7 -3 -0 -10 -17 -28 -27 -28 -25 -4 21 38 49 105 174 148 159 239 265
77 84 58 46 36 59 46 29 37 37 36 39 30 31 20 10 -5 -28 -27 -21 -13 -9 -2 7 17 14 14 5 5 -8 -9 -15 -21 -12 -8 -0 12 22 38 63 94 135 138 190
106 100 94 97 68 48 35 26 28 34 26 25 16 19 5 -3 -4 -17 -12 4 13 18 36 56 70 81 74 50 25 7 -1 6 -3 -26 -24 -12 -17 9 22 52 78 101 128 154
78 79 81 75 48 36 30 32 21 17 10 14 -0 -5 5 4 14 23 29 30 25 40 68 86 99 100 94 77 46 19 5 3 7 -15 -22 1 -8 -5 21 41 68 94 129 139
50 33 42 47 48 34 28 22 22 14 10 6 1 -0 -11 6 23 58 79 78 65 57 53 73 99 97 72 69 44 19 7 7 13 -0 -1 -8 -10 6 -1 13 39 69 107 168
100 91 79 55 43 35 40 45 46 25 3 -0 -11 -22 1 35 29 41 53 61 60 64 65 98 106 85 62 57 47 26 13 12 14 14 5 -2 11 -1 -2 -0 6 20 61 118
81 60 51 51 46 41 38 44 44 26 7 9 11 10 10 15 30 50 60 55 53 56 110 123 105 72 59 58 53 35 26 19 17 18 17 16 8 9 -0 -9 -10 8 27 47
63 59 54 48 43 42 28 41 32 24 20 26 25 43 41 42 51 63 64 52 43 49 56 73 72 69 63 54 50 39 37 30 27 23 23 21 17 11 8 10 -0 3 7 11
54 56 50 35 24 23 18 14 33 38 45 37 41 29 11 12 35 44 51 63 75 76 59 54 54 54 50 42 34 32 36 37 35 31 26 23 21 22 18 15 11 13 13 20
49 51 39 28 21 11 28 29 47 51 53 53 41 32 43 52 55 54 30 24 52 47 50 46 54 46 42 42 32 33 35 37 36 36 33 29 27 25 25 22 22 18 13 27
52 47 49 50 25 16 21 43 55 53 56 55 43 36 31 29 30 46 69 52 41 37 41 48 47 49 43 36 35 35 39 41 39 39 40 36 33 29 25 22 21 26 25 27
53 55 60 60 64 71 51 43 51 63 58 39 34 29 36 45 39 22 20 13 18 29 31 44 50 55 43 39 41 40 43 51 47 40 39 45 38 33 33 29 28 22 24 30
78 72 68 72 86 69 66 78 77 82 71 65 63 52 45 27 22 25 22 16 17 19 25 39 52 54 38 40 42 41 43 50 48 37 38 39 42 44 39 39 43 39 42 50
85 88 90 99 90 89 83 79 65 49 63 67 46 48 44 40 33 29 23 25 19 18 18 23 26 32 37 39 42 46 42 39 42 44 44 46 47 53 55 50 48 51 50 49
128 120 111 102 95 95 77 72 80 68 60 68 50 32 37 37 36 36 33 28 19 15 14 13 16 21 23 25 29 34 40 46 55 40 40 45 47 46 47 46 51 58 63 61

GFSNGP_con_3kmhel_141.txt.gz
Helicity
25 3 9 11 25 54 70 50 74 49 29 68 50 8 -37 -32 -39 -46 -54 -67 -77 -44 -26 -25 4 61 24 80 207 239 205 133 190 161 147 125 123 95 86 87 97 97 105 109
91 62 43 34 73 71 54 50 52 72 29 73 4 18 -3 -5 -29 -52 -50 -43 -37 -37 -20 -28 -21 15 39 6 40 79 98 87 97 105 107 104 101 98 69 80 96 95 72 78
78 33 12 36 72 39 34 81 96 78 79 0 11 17 -13 1 -37 -71 -59 -44 -31 -20 -17 -9 -2 -21 -11 -12 18 64 69 76 72 92 98 88 78 88 85 78 66 62 53 67
45 24 37 72 71 31 35 62 97 98 51 39 42 47 90 26 -35 -43 -59 -51 -30 -15 -19 -11 -2 18 26 -11 -29 0 44 38 11 22 60 77 88 98 109 87 61 52 58 60
39 31 42 70 45 23 38 89 86 41 15 14 19 27 66 4 1 -8 -8 -24 -35 -23 -10 -5 -4 14 10 17 29 37 55 69 67 68 52 54 69 83 90 96 85 69 67 58
46 40 41 66 64 28 57 72 58 46 -41 -53 -21 21 60 39 29 23 11 -6 -5 -16 -20 -8 13 16 3 19 34 39 40 34 15 14 15 9 44 49 35 44 54 60 74 76
76 50 21 75 53 -4 39 55 4 -10 26 39 29 49 68 38 -9 -3 -3 -4 -10 -17 -16 -9 -5 0 4 6 17 28 23 21 23 13 4 -3 16 4 12 27 27 44 66 83
69 59 34 48 14 24 57 26 -3 18 28 9 30 30 28 19 21 -5 -5 -10 -15 -18 -21 -29 -24 -24 2 15 22 21 12 14 17 11 -18 -22 -16 -5 13 24 49 59 76 82
48 54 80 47 40 18 11 26 15 12 16 28 30 5 -9 -6 -9 -21 -10 -18 -21 -24 -26 -32 -33 -38 -16 -3 6 15 18 16 2 4 2 6 -4 -16 -36 -21 -4 35 69 87
50 64 49 46 24 9 17 23 29 38 37 43 31 24 1 12 21 34 -12 -26 -28 -29 -30 -24 -20 -24 -27 -26 -31 -31 -17 1 -9 -11 7 -5 -15 -21 -10 -12 -11 8 27 93
33 43 66 45 22 20 32 66 57 50 44 38 28 27 38 45 47 42 33 14 1 -9 -6 -2 -1 1 -4 -9 -9 -7 -13 -13 -1 4 14 26 18 -12 -17 11 7 10 41 78
51 52 73 46 42 51 67 58 51 40 42 44 35 25 31 40 42 36 27 14 12 14 14 17 18 21 18 17 18 14 8 3 2 -1 -2 -1 10 49 82 52 71 101 141 130
46 54 69 84 78 67 66 52 49 53 43 29 37 40 36 30 40 49 38 25 29 24 25 24 21 23 35 45 40 25 13 -3 -7 -3 -18 -21 -18 -13 50 154 101 92 140 172
52 82 68 48 51 75 60 50 54 46 36 34 28 28 23 32 39 40 28 28 34 40 49 57 61 68 80 74 68 45 29 12 -12 -21 -20 -19 -13 -9 5 23 64 109 97 91
67 67 84 106 94 79 65 46 40 35 23 19 17 16 31 35 29 27 37 37 38 50 69 94 105 110 110 103 90 61 38 24 5 -14 -13 -10 -10 -6 1 9 0 30 63 86
69 64 61 74 66 61 49 41 34 19 11 10 19 24 18 21 27 30 15 20 39 46 55 77 86 96 97 94 91 67 39 26 14 4 7 5 2 2 2 1 -5 -3 19 49
38 27 42 53 50 53 49 38 24 19 14 22 13 9 15 11 16 24 34 39 37 49 68 72 72 86 74 79 70 52 40 31 23 15 13 13 11 6 -12 -11 -11 -16 -16 11
89 92 90 65 48 41 41 45 48 38 18 8 2 -3 -1 13 10 2 9 13 32 85 106 114 94 64 64 66 60 44 38 27 25 24 20 18 12 9 -3 -22 -21 -36 -18 -14
92 82 66 62 54 43 32 27 38 19 11 17 27 18 -15 -7 0 -13 -4 7 42 67 113 95 71 64 64 63 54 42 37 33 27 26 22 17 11 9 6 0 -3 -8 -7 -15
73 63 65 71 68 49 19 16 1 12 24 24 19 31 41 36 16 0 3 13 33 41 43 48 57 61 58 53 45 37 38 36 33 29 29 24 19 15 11 21 12 5 2 -9
52 53 62 65 59 49 42 21 19 31 33 36 40 44 38 10 4 2 40 44 61 60 50 47 54 56 47 42 35 34 37 40 41 42 38 34 28 24 20 20 20 10 2 -1
42 40 45 46 46 51 57 56 68 59 59 54 45 39 37 34 18 23 4 23 28 44 37 41 46 48 37 29 33 33 38 41 45 48 50 44 36 25 20 16 20 15 10 5
44 38 40 37 48 58 51 73 88 91 82 72 58 48 37 25 22 43 57 47 26 31 26 32 35 46 38 30 30 32 39 45 47 50 52 44 39 26 20 17 16 16 17 15
72 64 59 53 45 50 76 81 96 97 69 61 56 37 36 41 42 36 31 28 33 29 25 30 30 41 31 26 29 35 41 47 49 47 46 45 38 36 39 35 29 18 17 16
85 70 58 55 73 84 90 84 72 74 64 65 61 62 57 44 36 34 31 30 31 27 27 30 29 29 26 25 26 31 35 43 47 54 58 52 53 50 39 37 41 40 43 32
84 85 90 94 97 89 83 82 86 69 70 85 72 67 60 50 42 39 33 30 26 23 22 19 20 17 17 18 18 22 28 35 43 48 55 65 65 59 56 50 41 37 35 38
136 125 115 107 99 94 88 86 96 100 69 71 68 54 47 44 40 35 31 26 20 15 11 10 12 13 10 12 15 16 14 19 36 34 38 49 61 66 65 61 56 50 47 44

GFSNGP_con_3kmhel_144.txt.gz
Helicity
96 74 12 1 12 22 28 19 10 -16 6 77 99 41 33 18 6 -12 -28 -38 -18 -19 -17 -18 -10 -13 10 37 112 167 305 220 332 275 267 184 188 156 175 144 127 126 115 92
81 54 57 34 23 46 45 23 9 17 25 147 103 85 35 35 37 11 -11 -5 -3 -8 -4 -13 5 11 3 20 70 77 113 131 131 167 153 143 134 128 119 121 113 104 94 104
112 48 34 38 50 54 47 50 61 57 115 89 77 68 58 61 42 7 -10 3 -5 -10 -3 -8 -5 17 20 14 19 58 80 103 113 112 129 142 122 128 112 95 80 73 81 84
95 50 124 117 96 54 31 23 51 44 52 50 42 44 93 58 33 7 3 18 11 1 -2 -4 -14 -4 4 10 27 29 17 101 100 100 99 85 73 73 70 62 88 77 79 75
83 82 98 55 67 48 52 64 59 43 43 52 43 15 110 42 29 17 20 15 11 14 8 2 -1 -10 -18 -18 -14 5 22 33 70 114 142 107 61 66 63 51 54 89 85 92
59 90 78 130 76 38 24 59 73 44 28 38 28 18 33 7 2 -10 -8 -8 -4 -4 -12 -6 1 -2 -13 -3 7 20 32 48 50 72 95 111 122 131 104 101 90 78 82 80
52 41 61 99 80 38 31 93 72 49 48 40 20 25 31 5 24 -3 2 -14 -19 -16 -8 -5 -12 -10 1 7 25 33 30 33 35 34 38 32 45 29 43 56 52 53 58 62
65 48 62 53 62 41 95 75 66 47 39 30 22 24 12 -3 -5 -17 -26 -29 -23 -16 -10 -14 -11 -14 -7 2 6 11 13 22 25 23 12 12 21 14 11 5 5 15 32 52
35 73 106 69 81 87 61 50 44 33 34 25 25 32 -21 -14 -13 -27 -29 -36 -30 -33 -26 -8 2 3 -0 -3 -6 -4 -4 -1 -4 -1 8 6 11 14 -4 -10 -14 -9 3 30
53 52 61 63 62 56 39 30 30 38 38 30 29 36 24 23 37 33 39 42 7 -14 -9 -4 3 3 3 -1 -3 -3 -5 -12 -24 -25 -22 -27 -38 -30 -16 -4 12 6 -19 -24
48 56 68 48 55 47 42 47 38 47 46 45 38 34 30 35 56 64 66 63 49 32 3 -1 -6 -5 1 -1 -2 -8 -16 -20 -19 -23 -22 -28 -48 -62 -59 -46 -54 -62 -65 -37
53 74 73 64 47 37 51 47 51 39 42 52 50 42 40 41 52 54 49 54 52 39 30 30 34 39 44 44 42 33 19 12 8 3 -1 -5 2 16 6 -1 2 8 32 16
67 68 82 64 72 80 72 68 64 56 53 48 50 36 36 35 45 33 40 43 38 23 17 15 26 43 54 57 59 61 52 50 46 41 29 24 17 18 47 41 6 2 32 71
53 64 62 29 52 83 82 74 59 57 51 46 41 35 29 33 38 44 56 52 33 26 27 26 29 37 45 44 44 47 48 50 45 32 18 11 4 6 -2 12 21 5 11 40
42 54 83 79 71 76 67 56 49 49 43 40 41 27 25 29 40 51 55 42 26 18 33 33 45 64 69 56 45 33 37 42 38 18 6 -0 -2 3 -7 -10 -7 -4 -11 20
62 73 50 46 57 55 50 49 49 50 47 42 38 26 25 29 36 54 51 36 27 27 15 29 31 57 59 61 50 48 54 47 33 20 23 22 16 14 1 -4 -5 -3 -15 4
53 48 44 42 45 46 49 55 53 49 40 36 43 41 47 48 38 40 35 30 25 16 15 33 38 55 60 63 48 50 52 45 34 28 28 27 24 17 2 2 3 3 -5 4
91 91 93 75 52 44 49 48 46 55 53 57 54 41 35 39 29 39 29 21 18 10 24 39 47 50 67 65 50 56 52 45 38 35 30 31 27 18 10 5 7 10 10 2
86 84 84 73 67 67 64 62 71 72 62 46 40 32 30 31 35 28 30 16 37 34 38 40 44 51 63 66 54 52 53 51 43 37 29 25 23 23 23 13 4 1 -3 -4
89 75 68 75 83 84 87 88 73 82 74 58 44 45 36 41 35 32 25 24 45 37 17 34 37 51 53 55 47 52 49 47 43 39 35 26 29 29 26 31 25 15 1 -2
82 75 70 69 78 86 78 74 79 89 90 79 69 56 36 31 37 28 43 41 50 49 29 41 47 47 44 43 45 48 47 47 46 42 43 38 33 34 32 32 32 20 11 5
75 81 82 76 68 74 75 76 86 86 90 84 76 66 50 54 49 46 41 56 35 53 24 39 41 49 37 33 45 45 48 52 52 50 51 52 43 36 32 35 37 26 17 9
77 82 87 76 67 70 62 76 88 89 82 77 73 75 71 60 69 68 65 68 48 52 41 48 46 49 35 38 37 41 47 54 60 61 58 56 53 47 40 38 34 29 27 23
105 96 91 86 74 67 81 99 87 83 75 77 85 73 74 81 67 73 53 51 57 29 42 44 40 39 32 31 32 36 42 50 53 57 61 62 57 55 56 53 45 37 34 30
112 115 110 92 83 94 90 85 75 83 80 92 83 76 65 63 57 51 47 44 48 39 41 49 46 33 27 25 23 25 30 34 42 50 58 62 66 69 67 59 54 54 52 43
121 116 113 100 96 88 94 94 108 100 87 98 98 74 61 53 49 40 40 40 35 34 34 30 30 23 20 18 16 16 16 22 29 34 44 54 57 61 64 64 61 55 48 45
140 112 96 89 92 96 98 101 93 115 94 88 97 72 58 48 50 41 39 39 33 32 29 27 26 24 16 12 11 11 9 11 17 19 24 33 43 47 51 58 58 55 56 58